[Date Prev][Date Next][Thread Prev][Thread Next] - [Date Index][Thread Index][Author Index]
MIr Keps 30-4-00
- Subject: [sarex] MIr Keps 30-4-00
- From: "Dr Dave Larsen [ PhD ]" <doc@xxxxxxxxxxx>
- Date: Sun, 30 Apr 2000 01:08:12 -0700
Looks like MIR did a few orbit adj's - these keps will update fridays by over 3 min's!
MIR
1 16609U 86017A 00121.15544171 .00233257 00000-0 14576-2 0 5900
2 16609 51.6467 143.2051 0023233 107.2267 253.1274 15.75254276811601
----
Via the sarex mailing list at AMSAT.ORG courtesy of AMSAT-NA.
To unsubscribe, send "unsubscribe sarex" to Majordomo@amsat.org
AMSAT Home